Monticello, AR

7:05 AM CST on November 19, 2017 (GMT -0600)
Monticello Municipal-Ellis

Weather History for KLLQ - January, 2013

Change the Weather History Date:

Friday, January 25, 2013

  Actual Average Record
Temperature  
Mean Temperature 48 °F -  
Max Temperature 57 °F 56 °F 83 °F (1972)
Min Temperature 39 °F 32 °F 11 °F (1963)
Degree Days  
Heating Degree Days 17    
Moisture  
Dew Point 40 °F    
Average Humidity 87    
Maximum Humidity 93    
Minimum Humidity 62    
Precipitation  
Precipitation 0.05 in - - ()
Sea Level Pressure  
Sea Level Pressure 30.16 in    
Wind  
Wind Speed 3 mph (NNE)    
Max Wind Speed 8 mph    
Max Gust Speed -    
Visibility 5 miles    
Events Rain    
Averages and records for this station are not official NWS values.
T = Trace of Precipitation, MM = Missing Value Source: NWS Daily Summary

Daily Weather History Graph

Daily Weather History Graph

Search for Another Location

Airport or City:

Trip Planner

Search our weather history database for the weather conditions in past years. The results will help you decide how hot, cold, wet, or windy it might be!

Date:

Astronomy

Jan. 25, 2013 Rise Set
Actual Time 7:07 AM CST 5:31 PM CST
Civil Twilight 6:41 AM CST 5:58 PM CST
Nautical Twilight 6:10 AM CST 6:28 PM CST
Astronomical Twilight 5:41 AM CST 6:57 PM CST
Moon 4:29 PM CST (1/25) 5:46 AM CST (1/25)
Length of Visible Light 11h 17m
Length of Day
10h 24m
Waxing Gibbous, 98% of the Moon is Illuminated
Jan 25
Waxing Gibbous
Jan 26
Full
Feb 3
Last Quarter
Feb 10
New
Feb 17
First Quarter

Hourly Weather History & Observations

Time (CST) Temp. Windchill Dew Point Humidity Pressure Visibility Wind Dir Wind Speed Gust Speed Precip Events Conditions
12:53 AM 43.0 °F 41.3 °F 30.9 °F 62% 30.18 in 10.0 mi NE 3.5 mph - N/A   Overcast
1:53 AM 43.0 °F - 30.9 °F 62% 30.17 in 10.0 mi Calm Calm - N/A   Overcast
2:53 AM 43.0 °F - 32.0 °F 65% 30.13 in 10.0 mi Calm Calm - N/A   Overcast
3:53 AM 44.1 °F - 34.0 °F 68% 30.10 in 10.0 mi Calm Calm - N/A   Overcast
4:28 AM 44.6 °F - 33.8 °F 66% 30.08 in 10.0 mi Calm Calm - N/A   Scattered Clouds
4:53 AM 44.1 °F 41.5 °F 35.1 °F 71% 30.08 in 10.0 mi South 4.6 mph - N/A   Clear
5:53 AM 46.9 °F - 41.0 °F 80% 30.06 in 10.0 mi South 3.5 mph - N/A   Clear
6:03 AM 48.2 °F - 42.8 °F 82% 30.06 in 10.0 mi South 4.6 mph - N/A   Scattered Clouds
6:11 AM 48.2 °F - 44.6 °F 87% 30.06 in 10.0 mi South 5.8 mph - N/A   Mostly Cloudy
6:53 AM 57.0 °F - 54.0 °F 89% 30.09 in 10.0 mi WSW 4.6 mph - N/A   Overcast
7:29 AM 53.6 °F - 50.0 °F 88% 30.12 in 10.0 mi West 5.8 mph - N/A   Overcast
7:53 AM 52.0 °F - 48.9 °F 89% 30.13 in 10.0 mi WNW 4.6 mph - N/A   Overcast
8:53 AM 48.9 °F - 46.0 °F 90% 30.16 in 4.0 mi NE 6.9 mph - 0.00 in Rain Light Rain
9:07 AM 46.4 °F 42.9 °F 44.6 °F 93% 30.16 in 2.0 mi NE 6.9 mph - 0.00 in Rain Light Rain
9:15 AM 46.4 °F 44.3 °F 44.6 °F 93% 30.16 in 1.8 mi NE 4.6 mph - 0.00 in Rain Light Rain
9:43 AM 44.6 °F 42.2 °F 42.8 °F 93% 30.17 in 1.8 mi NNE 4.6 mph - 0.00 in   Overcast
9:53 AM 43.0 °F 39.5 °F 41.0 °F 93% 30.18 in 1.5 mi NNE 5.8 mph - 0.00 in   Overcast
10:53 AM 39.0 °F 33.4 °F 37.0 °F 93% 30.21 in 1.2 mi North 8.1 mph - 0.01 in Rain Light Rain
11:49 AM 39.2 °F 37.0 °F 37.4 °F 93% 30.19 in 2.0 mi NNE 3.5 mph - 0.01 in Rain Light Rain
11:53 AM 39.0 °F 36.8 °F 37.0 °F 93% 30.19 in 2.0 mi Variable 3.5 mph - 0.01 in Rain Light Rain
12:53 PM 39.9 °F 37.8 °F 37.9 °F 93% 30.17 in 2.5 mi North 3.5 mph - 0.01 in   Overcast
1:10 PM 39.2 °F - 37.4 °F 93% 30.16 in 3.0 mi Calm Calm - 0.00 in   Overcast
1:19 PM 39.2 °F 35.9 °F 37.4 °F 93% 30.16 in 2.0 mi North 4.6 mph - 0.00 in Rain Light Rain
1:53 PM 41.0 °F 38.0 °F 39.0 °F 93% 30.16 in 3.0 mi NNE 4.6 mph - 0.01 in   Overcast
2:09 PM 41.0 °F 39.0 °F 39.2 °F 93% 30.16 in 2.5 mi NNE 3.5 mph - 0.00 in Rain Light Rain
2:29 PM 41.0 °F - 39.2 °F 93% 30.16 in 3.0 mi Calm Calm - 0.00 in   Overcast
2:44 PM 41.0 °F 38.0 °F 39.2 °F 93% 30.16 in 2.5 mi NNE 4.6 mph - 0.00 in Rain Light Rain
2:53 PM 42.1 °F 40.2 °F 39.0 °F 89% 30.16 in 2.5 mi NNE 3.5 mph - 0.00 in   Overcast
3:00 PM 42.8 °F 41.1 °F 39.2 °F 87% 30.16 in 3.0 mi NNE 3.5 mph - N/A   Overcast
3:13 PM 42.8 °F 41.1 °F 39.2 °F 87% 30.15 in 3.0 mi NE 3.5 mph - 0.00 in Rain Light Rain
3:53 PM 42.1 °F 40.2 °F 39.9 °F 92% 30.17 in 3.0 mi Variable 3.5 mph - 0.01 in Rain Light Rain
4:03 PM 42.8 °F 41.1 °F 39.2 °F 87% 30.16 in 2.5 mi NNE 3.5 mph - 0.00 in Rain Light Rain
4:12 PM 42.8 °F 41.1 °F 39.2 °F 87% 30.16 in 3.0 mi Variable 3.5 mph - 0.00 in   Overcast
4:53 PM 42.1 °F 40.2 °F 39.9 °F 92% 30.17 in 4.0 mi Variable 3.5 mph - 0.00 in   Overcast
5:16 PM 42.8 °F - 39.2 °F 87% 30.19 in 5.0 mi Calm Calm - N/A   Overcast
5:53 PM 42.1 °F - 39.9 °F 92% 30.20 in 6.0 mi Calm Calm - N/A   Overcast
6:06 PM 42.8 °F - 39.2 °F 87% 30.21 in 6.0 mi Calm Calm - N/A   Overcast
6:53 PM 43.0 °F - 39.9 °F 89% 30.22 in 5.0 mi Calm Calm - N/A   Overcast
7:53 PM 43.0 °F 40.3 °F 39.9 °F 89% 30.22 in 5.0 mi NNE 4.6 mph - N/A   Overcast
8:07 PM 42.8 °F - 39.2 °F 87% 30.22 in 6.0 mi Calm Calm - N/A   Overcast
8:53 PM 42.1 °F - 39.9 °F 92% 30.22 in 4.0 mi Calm Calm - N/A   Mostly Cloudy
9:53 PM 41.0 °F - 39.0 °F 93% 30.22 in 3.0 mi Calm Calm - N/A   Scattered Clouds
10:53 PM 42.1 °F - 39.9 °F 92% 30.24 in 5.0 mi Calm Calm - N/A   Overcast
11:53 PM 42.1 °F 37.7 °F 39.0 °F 89% 30.23 in 7.0 mi ENE 6.9 mph - N/A   Overcast